When you browse on this site, cookies collect data to enhance your experience and personalize the content and advertising you see.
Visit our Privacy Policy to learn more. By continuing to use the site, you agree to this use of cookies and data.

Stündliche Wetter Shaki

Heute, 16 Juli, Donnerstag

Zeit Temperatur Niederschläge Wind Luftdruck Luftfeuchtigkeit
00:00 +26°C° 0.1 mm 2 m/S 734 mmHg 66%
01:00 +26°C° 0.1 mm 2 m/S 733 mmHg 66%
02:00 +26°C° 0.1 mm 2 m/S 733 mmHg 66%
03:00 +25°C° 0 mm 2 m/S 733 mmHg 64%
04:00 +26°C° 0 mm 1 m/S 733 mmHg 62%
05:00 +27°C° 0 mm 1 m/S 733 mmHg 61%
06:00 +27°C° 0 mm 1 m/S 733 mmHg 60%
07:00 +28°C° 0 mm 1 m/S 733 mmHg 56%
08:00 +30°C° 0 mm 1 m/S 733 mmHg 52%
09:00 +31°C° 0 mm 2 m/S 733 mmHg 47%
10:00 +32°C° 0.1 mm 2 m/S 733 mmHg 45%
11:00 +34°C° 0.1 mm 2 m/S 733 mmHg 43%
12:00 +34°C° 0.1 mm 2 m/S 732 mmHg 41%
13:00 +35°C° 0.1 mm 2 m/S 732 mmHg 40%
14:00 +35°C° 0.1 mm 2 m/S 732 mmHg 38%
15:00 +36°C° 0.1 mm 2 m/S 732 mmHg 37%
16:00 +35°C° 0 mm 1 m/S 731 mmHg 37%
17:00 +35°C° 0 mm 1 m/S 731 mmHg 38%
18:00 +34°C° 0 mm 1 m/S 731 mmHg 38%
19:00 +34°C° 0 mm 2 m/S 732 mmHg 42%
20:00 +31°C° 0 mm 3 m/S 732 mmHg 46%
21:00 +29°C° 0 mm 4 m/S 732 mmHg 50%
22:00 +28°C° 0 mm 4 m/S 732 mmHg 52%
23:00 +28°C° 0 mm 4 m/S 732 mmHg 54%

Morgen, 17 Juli, Freitag

Zeit Temperatur Niederschläge Wind Luftdruck Luftfeuchtigkeit
00:00 +27°C° 0 mm 3 m/S 731 mmHg 56%
01:00 +27°C° 0 mm 3 m/S 732 mmHg 56%
02:00 +26°C° 0 mm 2 m/S 732 mmHg 56%
03:00 +26°C° 0 mm 2 m/S 732 mmHg 55%
04:00 +27°C° 0 mm 1 m/S 732 mmHg 55%
05:00 +27°C° 0 mm 1 m/S 732 mmHg 54%
06:00 +28°C° 0 mm 1 m/S 731 mmHg 53%
07:00 +29°C° 0 mm 1 m/S 731 mmHg 50%
08:00 +31°C° 0 mm 2 m/S 731 mmHg 46%
09:00 +32°C° 0 mm 2 m/S 731 mmHg 42%
10:00 +34°C° 0 mm 3 m/S 731 mmHg 40%
11:00 +35°C° 0 mm 3 m/S 731 mmHg 38%
12:00 +36°C° 0 mm 3 m/S 730 mmHg 35%
13:00 +37°C° 0 mm 3 m/S 730 mmHg 34%
14:00 +37°C° 0 mm 3 m/S 730 mmHg 32%
15:00 +38°C° 0 mm 3 m/S 729 mmHg 30%
16:00 +38°C° 0 mm 3 m/S 729 mmHg 30%
17:00 +37°C° 0 mm 3 m/S 729 mmHg 31%
18:00 +37°C° 0 mm 3 m/S 729 mmHg 32%
19:00 +35°C° 0 mm 3 m/S 730 mmHg 35%
20:00 +33°C° 0 mm 3 m/S 730 mmHg 39%
21:00 +30°C° 0 mm 3 m/S 731 mmHg 42%
22:00 +30°C° 0 mm 3 m/S 731 mmHg 43%
23:00 +29°C° 0 mm 2 m/S 731 mmHg 45%

übermorgen, 18 Juli, Samstag

Zeit Temperatur Niederschläge Wind Luftdruck Luftfeuchtigkeit
00:00 +29°C° 0 mm 2 m/S 731 mmHg 46%
01:00 +28°C° 0 mm 2 m/S 731 mmHg 48%
02:00 +27°C° 0 mm 1 m/S 731 mmHg 49%
03:00 +27°C° 0 mm 1 m/S 731 mmHg 51%
04:00 +27°C° 0 mm 1 m/S 731 mmHg 51%
05:00 +28°C° 0 mm 1 m/S 731 mmHg 52%
06:00 +28°C° 0 mm 1 m/S 731 mmHg 52%
07:00 +30°C° 0 mm 1 m/S 731 mmHg 48%
08:00 +31°C° 0 mm 2 m/S 731 mmHg 43%
09:00 +34°C° 0 mm 2 m/S 731 mmHg 39%
10:00 +35°C° 0.1 mm 2 m/S 731 mmHg 37%
11:00 +36°C° 0.1 mm 2 m/S 731 mmHg 34%
12:00 +38°C° 0.1 mm 2 m/S 731 mmHg 32%
13:00 +38°C° 0 mm 3 m/S 731 mmHg 30%
14:00 +39°C° 0 mm 3 m/S 731 mmHg 29%
15:00 +40°C° 0 mm 3 m/S 731 mmHg 28%
16:00 +39°C° 0 mm 3 m/S 731 mmHg 29%
17:00 +39°C° 0 mm 3 m/S 731 mmHg 29%
18:00 +38°C° 0 mm 3 m/S 731 mmHg 30%
19:00 +36°C° 0 mm 4 m/S 732 mmHg 35%
20:00 +34°C° 0 mm 4 m/S 732 mmHg 39%
21:00 +32°C° 0 mm 5 m/S 732 mmHg 44%
22:00 +30°C° 0 mm 4 m/S 733 mmHg 45%
23:00 +29°C° 0 mm 3 m/S 733 mmHg 47%

19 Juli, Sonntag

Zeit Temperatur Niederschläge Wind Luftdruck Luftfeuchtigkeit
00:00 +28°C° 0 mm 2 m/S 733 mmHg 49%
01:00 +28°C° 0 mm 2 m/S 733 mmHg 49%
02:00 +28°C° 0 mm 1 m/S 733 mmHg 49%
03:00 +28°C° 0 mm 1 m/S 733 mmHg 50%
04:00 +28°C° 0 mm 1 m/S 733 mmHg 50%
05:00 +29°C° 0 mm 1 m/S 733 mmHg 49%
06:00 +29°C° 0 mm 1 m/S 733 mmHg 49%
07:00 +31°C° 0 mm 1 m/S 733 mmHg 46%
08:00 +32°C° 0 mm 2 m/S 733 mmHg 43%
09:00 +34°C° 0 mm 2 m/S 733 mmHg 40%
10:00 +35°C° 0 mm 2 m/S 733 mmHg 38%
11:00 +37°C° 0 mm 2 m/S 733 mmHg 36%
12:00 +38°C° 0 mm 2 m/S 733 mmHg 34%
13:00 +38°C° 0 mm 2 m/S 733 mmHg 33%
14:00 +39°C° 0 mm 2 m/S 732 mmHg 31%
15:00 +40°C° 0 mm 2 m/S 732 mmHg 30%
16:00 +39°C° 0 mm 2 m/S 732 mmHg 31%
17:00 +39°C° 0 mm 3 m/S 732 mmHg 32%
18:00 +39°C° 0 mm 3 m/S 732 mmHg 33%
19:00 +37°C° 0 mm 3 m/S 732 mmHg 36%
20:00 +35°C° 0 mm 3 m/S 733 mmHg 39%
21:00 +33°C° 0 mm 3 m/S 733 mmHg 42%
22:00 +31°C° 0 mm 3 m/S 733 mmHg 44%
23:00 +30°C° 0 mm 2 m/S 733 mmHg 46%

20 Juli, Montag

Zeit Temperatur Niederschläge Wind Luftdruck Luftfeuchtigkeit
00:00 +30°C° 0 mm 2 m/S 733 mmHg 48%
01:00 +29°C° 0 mm 2 m/S 733 mmHg 48%
02:00 +29°C° 0 mm 1 m/S 733 mmHg 49%
03:00 +29°C° 0 mm 1 m/S 733 mmHg 49%
04:00 +29°C° 0 mm 1 m/S 733 mmHg 48%
05:00 +30°C° 0 mm 1 m/S 733 mmHg 48%
06:00 +29°C° 0 mm 0 m/S 733 mmHg 47%
07:00 +32°C° 0 mm 1 m/S 733 mmHg 43%
08:00 +35°C° 0 mm 2 m/S 732 mmHg 40%
09:00 +36°C° 0 mm 2 m/S 732 mmHg 36%
10:00 +37°C° 0 mm 2 m/S 732 mmHg 35%
11:00 +38°C° 0 mm 3 m/S 732 mmHg 33%
12:00 +39°C° 0 mm 3 m/S 732 mmHg 31%
13:00 +40°C° 0 mm 3 m/S 731 mmHg 30%
14:00 +40°C° 0 mm 3 m/S 731 mmHg 28%
15:00 +41°C° 0 mm 2 m/S 730 mmHg 27%
16:00 +41°C° 0 mm 2 m/S 730 mmHg 28%
17:00 +40°C° 0 mm 3 m/S 730 mmHg 28%
18:00 +40°C° 0 mm 3 m/S 730 mmHg 29%
19:00 +38°C° 0 mm 3 m/S 730 mmHg 31%
20:00 +36°C° 0 mm 3 m/S 731 mmHg 33%
21:00 +34°C° 0 mm 3 m/S 731 mmHg 36%
22:00 +33°C° 0 mm 3 m/S 731 mmHg 37%
23:00 +31°C° 0 mm 2 m/S 730 mmHg 38%

21 Juli, Dienstag

Zeit Temperatur Niederschläge Wind Luftdruck Luftfeuchtigkeit
00:00 +30°C° 0 mm 2 m/S 730 mmHg 39%
01:00 +30°C° 0 mm 2 m/S 730 mmHg 41%
02:00 +29°C° 0 mm 2 m/S 730 mmHg 42%
03:00 +29°C° 0 mm 1 m/S 730 mmHg 43%
04:00 +30°C° 0 mm 1 m/S 730 mmHg 43%
05:00 +30°C° 0 mm 1 m/S 730 mmHg 43%
06:00 +29°C° 0 mm 0 m/S 730 mmHg 43%
07:00 +32°C° 0 mm 1 m/S 729 mmHg 40%
08:00 +34°C° 0 mm 1 m/S 729 mmHg 37%
09:00 +36°C° 0 mm 2 m/S 729 mmHg 33%
10:00 +37°C° 0 mm 2 m/S 729 mmHg 31%
11:00 +38°C° 0 mm 2 m/S 728 mmHg 29%
12:00 +40°C° 0 mm 2 m/S 728 mmHg 27%
13:00 +40°C° 0 mm 3 m/S 727 mmHg 27%
14:00 +42°C° 0 mm 3 m/S 727 mmHg 26%
15:00 +42°C° 0 mm 3 m/S 726 mmHg 25%
16:00 +41°C° 0 mm 2 m/S 726 mmHg 26%
17:00 +41°C° 0 mm 2 m/S 726 mmHg 27%
18:00 +40°C° 0 mm 2 m/S 726 mmHg 28%
19:00 +38°C° 0 mm 2 m/S 727 mmHg 31%
20:00 +36°C° 0 mm 2 m/S 727 mmHg 34%
21:00 +34°C° 0 mm 3 m/S 727 mmHg 38%
22:00 +31°C° 0.1 mm 3 m/S 727 mmHg 43%
23:00 +30°C° 0.1 mm 3 m/S 727 mmHg 49%
Mehr zeigen